Regional Weather Roundup
Issued by NWS Albany, NY

Home | Current Version | Previous Version | Text Only | Print | Product List | Glossary On
Versions: 1 2 3 4 5 6 7 8 9 10 11 12 13 14 15 16 17 18 19 20 21 22 23 24 25 26 27 28 29 30 31 32 33 34 35 36 37 38 39 40 41 42 43 44 45 46 47 48 49 50
000
ASUS41 KALY 281310
RWRALY

NEW YORK STATE HOURLY WEATHER ROUNDUP
NATIONAL WEATHER SERVICE ALBANY NY
900 AM EDT FRI AUG 28 2015

NOTE: "FAIR" INDICATES FEW OR NO CLOUDS BELOW 12,000 FEET WITH NO
SIGNIFICANT WEATHER AND/OR NO OBSTRUCTIONS TO VISIBILITY.

NYZ032-033-038>043-046>054-057>066-NYZ062>081-281400-
EAST


CITY           SKY/WX    TMP DP  RH WIND       PRES   REMARKS
ALBANY         MOSUNNY   65  55  70 N5        30.20R
GLENS FALLS    SUNNY     60  55  83 CALM      30.19S
POUGHKEEPSIE   SUNNY     63  56  78 CALM      30.18F
NEWBURGH       SUNNY     63  57  82 CALM      30.20S
MONTGOMERY     SUNNY     61  55  81 CALM      30.20R
WHITE PLAINS   SUNNY     67  53  61 N12       30.18R
ISLIP          MOSUNNY   71  55  56 N9        30.15R
NEW YORK CITY  MOSUNNY   70  55  59 N5        30.17S
CENTRAL PARK   SUNNY     68  53  58 CALM      30.21R
$$

NYZ005>009-017-018-044>046-055-056-281400-
CENTRAL


CITY           SKY/WX    TMP DP  RH WIND       PRES   REMARKS
FULTON         CLOUDY    63  57  81 SW3       30.21R
SYRACUSE       CLOUDY    62  57  83 W7        30.21R
ROME           CLOUDY    57  55  93 CALM      30.23R
ELMIRA         CLOUDY    55  55 100 SW7       30.23S
BINGHAMTON     PTSUNNY   58  54  86 CALM      30.23S
MONTICELLO     SUNNY     61  54  77 NW7       30.23S
$$

NYZ026>034-041>043-281400-
NORTH


CITY           SKY/WX    TMP DP  RH WIND       PRES   REMARKS
WATERTOWN      SUNNY     65  57  75 SW3       30.19R
FORT DRUM      NOT AVBL
MASSENA        SUNNY     62  56  80 SW5       30.20R
SARANAC LAKE   CLOUDY    55  54  96 W5        30.19S
PLATTSBURGH    SUNNY     66  56  70 CALM      30.18R
$$

NYZ001>004-010>016-019>021-281400-
WEST


CITY           SKY/WX    TMP DP  RH WIND       PRES   REMARKS
NIAGARA FALLS  MOSUNNY   63  56  78 CALM      30.21S
BUFFALO        MOSUNNY   61  55  81 S5        30.22S
DUNKIRK        CLOUDY    62  55  77 S7        30.23R
JAMESTOWN      CLOUDY    54  50  87 S3        30.25R VSB 1/2
WELLSVILLE     FOG       53  51  93 CALM      30.27S VSB 1
ROCHESTER      MOSUNNY   59  55  87 SW8       30.23R
PENN YAN       SUNNY     60  56  86 S6        30.24R
$$

             KEY
       WCI = WIND CHILL INDEX
       VSB = VISIBILITY
       HX  = HEAT INDEX
$$


USA.gov is the U.S. government's official web portal to all federal, state and local government web resources and services.